• In Czech Republic
  • List of Countries
  • For 7 days
  • Water Temperature
  • Satellite Maps
  • Weather Map
  • Weather Widgets
  • user-avatar
    Login

    Hourly Weather Ludwina

    Today, 18 August, Saturday

    Time Temperature Precipitation Wind Pressure Humidity
    00:00 +21°C° 0 mm 2 mps 749 mmHg 67%
    01:00 +21°C° 0 mm 2 mps 750 mmHg 70%
    02:00 +20°C° 0 mm 2 mps 750 mmHg 72%
    03:00 +20°C° 0 mm 2 mps 750 mmHg 75%
    04:00 +20°C° 0 mm 1 mps 750 mmHg 77%
    05:00 +21°C° 0 mm 1 mps 750 mmHg 74%
    06:00 +22°C° 0 mm 1 mps 751 mmHg 71%
    07:00 +23°C° 0 mm 2 mps 751 mmHg 69%
    08:00 +24°C° 0 mm 2 mps 752 mmHg 65%
    09:00 +26°C° 0 mm 2 mps 752 mmHg 61%
    10:00 +27°C° 0 mm 2 mps 752 mmHg 57%
    11:00 +28°C° 0 mm 2 mps 752 mmHg 52%
    12:00 +29°C° 0 mm 2 mps 752 mmHg 48%
    13:00 +29°C° 0 mm 2 mps 752 mmHg 49%
    14:00 +29°C° 0 mm 2 mps 752 mmHg 47%
    15:00 +30°C° 0 mm 2 mps 752 mmHg 46%
    16:00 +30°C° 0 mm 2 mps 752 mmHg 45%
    17:00 +28°C° 0 mm 2 mps 752 mmHg 50%
    18:00 +27°C° 0 mm 2 mps 752 mmHg 55%
    19:00 +26°C° 0 mm 2 mps 752 mmHg 60%
    20:00 +25°C° 0.1 mm 2 mps 752 mmHg 62%
    21:00 +24°C° 0.1 mm 2 mps 752 mmHg 65%
    22:00 +23°C° 0.1 mm 2 mps 753 mmHg 68%
    23:00 +21°C° 0 mm 2 mps 753 mmHg 69%

    Tomorrow, 19 August, Sunday

    Time Temperature Precipitation Wind Pressure Humidity
    00:00 +21°C° 0 mm 2 mps 753 mmHg 70%
    01:00 +20°C° 0 mm 2 mps 753 mmHg 71%
    02:00 +21°C° 0 mm 1 mps 753 mmHg 71%
    03:00 +21°C° 0 mm 1 mps 753 mmHg 72%
    04:00 +20°C° 0 mm 1 mps 753 mmHg 72%
    05:00 +21°C° 0 mm 1 mps 753 mmHg 69%
    06:00 +22°C° 0 mm 1 mps 753 mmHg 66%
    07:00 +21°C° 0 mm 0 mps 753 mmHg 63%
    08:00 +25°C° 0 mm 1 mps 753 mmHg 58%
    09:00 +26°C° 0 mm 1 mps 753 mmHg 54%
    10:00 +28°C° 0 mm 1 mps 753 mmHg 49%
    11:00 +28°C° 0 mm 1 mps 753 mmHg 47%
    12:00 +29°C° 0 mm 1 mps 753 mmHg 45%
    13:00 +29°C° 0 mm 2 mps 752 mmHg 43%
    14:00 +29°C° 0 mm 1 mps 752 mmHg 43%
    15:00 +29°C° 0 mm 1 mps 752 mmHg 43%
    16:00 +29°C° 0 mm 1 mps 752 mmHg 43%
    17:00 +28°C° 0 mm 1 mps 751 mmHg 46%
    18:00 +27°C° 0 mm 1 mps 751 mmHg 50%
    19:00 +26°C° 0 mm 1 mps 751 mmHg 54%
    20:00 +25°C° 0 mm 1 mps 751 mmHg 56%
    21:00 +24°C° 0 mm 2 mps 751 mmHg 58%
    22:00 +24°C° 0 mm 2 mps 751 mmHg 60%
    23:00 +23°C° 0 mm 2 mps 751 mmHg 63%

    Day after tomorrow, 20 August, Monday

    Time Temperature Precipitation Wind Pressure Humidity
    00:00 +23°C° 0 mm 2 mps 751 mmHg 65%
    01:00 +21°C° 0 mm 3 mps 750 mmHg 68%
    02:00 +21°C° 0 mm 3 mps 750 mmHg 69%
    03:00 +21°C° 0 mm 3 mps 750 mmHg 70%
    04:00 +21°C° 0 mm 3 mps 750 mmHg 71%
    05:00 +22°C° 0 mm 3 mps 749 mmHg 69%
    06:00 +24°C° 0 mm 3 mps 749 mmHg 67%
    07:00 +25°C° 0 mm 3 mps 749 mmHg 65%
    08:00 +26°C° 0 mm 3 mps 749 mmHg 59%
    09:00 +28°C° 0 mm 3 mps 749 mmHg 53%
    10:00 +30°C° 0 mm 4 mps 749 mmHg 47%
    11:00 +30°C° 0 mm 4 mps 749 mmHg 46%
    12:00 +30°C° 0 mm 4 mps 749 mmHg 44%
    13:00 +32°C° 0 mm 5 mps 748 mmHg 42%
    14:00 +30°C° 0 mm 5 mps 748 mmHg 42%
    15:00 +30°C° 0 mm 5 mps 748 mmHg 42%
    16:00 +30°C° 0 mm 5 mps 748 mmHg 42%
    17:00 +28°C° 0 mm 5 mps 748 mmHg 48%
    18:00 +27°C° 0 mm 5 mps 748 mmHg 54%
    19:00 +25°C° 0 mm 4 mps 748 mmHg 60%
    20:00 +23°C° 0 mm 4 mps 749 mmHg 64%
    21:00 +22°C° 0 mm 4 mps 749 mmHg 68%
    22:00 +21°C° 0 mm 4 mps 750 mmHg 73%
    23:00 +20°C° 0 mm 4 mps 750 mmHg 75%

    21 August, Tuesday

    Time Temperature Precipitation Wind Pressure Humidity
    00:00 +19°C° 0 mm 3 mps 750 mmHg 76%
    01:00 +18°C° 0 mm 3 mps 751 mmHg 78%
    02:00 +17°C° 0 mm 3 mps 751 mmHg 77%
    03:00 +16°C° 0 mm 3 mps 751 mmHg 77%
    04:00 +16°C° 0 mm 3 mps 752 mmHg 76%
    05:00 +16°C° 0 mm 3 mps 752 mmHg 73%
    06:00 +17°C° 0 mm 4 mps 752 mmHg 70%
    07:00 +17°C° 0 mm 4 mps 753 mmHg 66%
    08:00 +19°C° 0 mm 4 mps 753 mmHg 61%
    09:00 +20°C° 0 mm 4 mps 753 mmHg 55%
    10:00 +21°C° 0 mm 4 mps 753 mmHg 50%
    11:00 +22°C° 0 mm 4 mps 753 mmHg 46%
    12:00 +23°C° 0 mm 4 mps 753 mmHg 42%
    13:00 +25°C° 0 mm 4 mps 753 mmHg 38%
    14:00 +25°C° 0 mm 4 mps 753 mmHg 38%
    15:00 +25°C° 0 mm 3 mps 753 mmHg 37%
    16:00 +25°C° 0 mm 3 mps 753 mmHg 37%
    17:00 +24°C° 0 mm 3 mps 753 mmHg 42%
    18:00 +21°C° 0 mm 2 mps 753 mmHg 46%
    19:00 +20°C° 0 mm 2 mps 753 mmHg 51%
    20:00 +19°C° 0 mm 2 mps 753 mmHg 54%
    21:00 +18°C° 0 mm 2 mps 754 mmHg 56%
    22:00 +18°C° 0 mm 2 mps 754 mmHg 59%
    23:00 +18°C° 0 mm 1 mps 754 mmHg 62%

    22 August, Wednesday

    Time Temperature Precipitation Wind Pressure Humidity
    00:00 +18°C° 0 mm 1 mps 754 mmHg 65%
    01:00 +16°C° 0 mm 1 mps 754 mmHg 68%
    02:00 +16°C° 0 mm 1 mps 754 mmHg 70%
    03:00 +15°C° 0 mm 1 mps 754 mmHg 72%
    04:00 +15°C° 0 mm 1 mps 754 mmHg 74%
    05:00 +16°C° 0 mm 1 mps 754 mmHg 70%
    06:00 +18°C° 0 mm 1 mps 754 mmHg 66%
    07:00 +20°C° 0 mm 1 mps 754 mmHg 62%
    08:00 +21°C° 0 mm 1 mps 754 mmHg 55%
    09:00 +23°C° 0 mm 2 mps 754 mmHg 49%
    10:00 +25°C° 0 mm 2 mps 754 mmHg 43%
    11:00 +26°C° 0 mm 2 mps 753 mmHg 40%
    12:00 +27°C° 0 mm 2 mps 753 mmHg 37%
    13:00 +28°C° 0 mm 2 mps 753 mmHg 35%
    14:00 +28°C° 0 mm 2 mps 752 mmHg 34%
    15:00 +28°C° 0 mm 2 mps 752 mmHg 33%
    16:00 +29°C° 0 mm 2 mps 751 mmHg 33%
    17:00 +27°C° 0 mm 2 mps 751 mmHg 37%
    18:00 +25°C° 0 mm 1 mps 751 mmHg 41%
    19:00 +24°C° 0 mm 1 mps 751 mmHg 46%
    20:00 +23°C° 0 mm 1 mps 751 mmHg 48%
    21:00 +21°C° 0 mm 2 mps 751 mmHg 50%
    22:00 +20°C° 0 mm 2 mps 751 mmHg 52%
    23:00 +20°C° 0 mm 2 mps 751 mmHg 56%

    23 August, Thursday

    Time Temperature Precipitation Wind Pressure Humidity
    00:00 +19°C° 0 mm 2 mps 751 mmHg 59%
    01:00 +19°C° 0 mm 2 mps 751 mmHg 63%
    02:00 +18°C° 0 mm 2 mps 751 mmHg 66%
    03:00 +18°C° 0 mm 2 mps 750 mmHg 70%
    04:00 +17°C° 0 mm 2 mps 750 mmHg 73%
    05:00 +18°C° 0 mm 2 mps 750 mmHg 70%
    06:00 +19°C° 0 mm 2 mps 750 mmHg 68%
    07:00 +20°C° 0 mm 2 mps 750 mmHg 66%
    08:00 +23°C° 0 mm 2 mps 750 mmHg 58%
    09:00 +25°C° 0 mm 2 mps 750 mmHg 51%
    10:00 +27°C° 0 mm 2 mps 750 mmHg 44%
    11:00 +28°C° 0 mm 2 mps 749 mmHg 41%
    12:00 +29°C° 0 mm 2 mps 749 mmHg 37%
    13:00 +30°C° 0 mm 2 mps 748 mmHg 34%
    14:00 +30°C° 0 mm 2 mps 748 mmHg 33%
    15:00 +31°C° 0 mm 1 mps 748 mmHg 33%
    16:00 +31°C° 0 mm 1 mps 747 mmHg 32%
    17:00 +29°C° 0 mm 1 mps 747 mmHg 36%
    18:00 +27°C° 0 mm 1 mps 747 mmHg 40%
    19:00 +26°C° 0 mm 1 mps 747 mmHg 44%
    20:00 +25°C° 0 mm 1 mps 747 mmHg 46%
    21:00 +24°C° 0 mm 2 mps 747 mmHg 47%
    22:00 +24°C° 0 mm 2 mps 747 mmHg 48%
    23:00 +23°C° 0 mm 2 mps 746 mmHg 49%
    Show more